ORBVIEW 2 (SEASTAR) (24883 NORAD) Tracking and Keplerian Element Data

This shows tracking and keplerian element data for the satellite.

Feedback or suggestion? Click here.




ElementValue
Catalog24883
NameORBVIEW 2 (SEASTAR)
Epoch Orbit39563
Epoch Day12.89813158
Epoch Year2024
RAAN150.6407
Inclination98.75
Eccentricity0.0001875
Argument of Perigee192.114
Mean Anonmoly167.9999
Mean Motion14.34316622
Decay Rate6.5E-06
L11 24883U 97037A 24012.89813158 .00000650 00000+0 24760-3 0 9995
L22 24883 98.7500 150.6407 0001875 192.1140 167.9999 14.34316622395636



Live tracking and technical data element details for ORBVIEW 2 (SEASTAR) (NORAD 24883). ORBVIEW 2 (SEASTAR) can be tracked NOW for your location showing map with azimuth and elevation plus other details from your city location.







IsCatalogInMostPopularTable: catalog: 24883, numindb: 394
Update: records affected: 1



GetName: 24883 ORBVIEW 2 (SEASTAR)

Hit Count: updated at: Fri, 19 Apr 2024 13:07:27 GMT